DECAYED
Showing default

LUCKY-7, 44406 (Decayed)

Orbit data source: Space-Track

LUCKY-7, 44406 was a payload satellite owned by SkyFox Labs (CZ) in LEO that was launched on Fri, 05 Jul 2019 UTC via a SOYUZ-2-1B launch vehicle from the Vostochny Cosmodrome (VOSTO). Payloads include a variety of satellites, spacecraft, and rockets equipped with specific instruments for various scientific and technological missions. These include communications satellites like Starlink; space stations such as the ISS; scientific satellites like the Hubble; Earth observation satellites from companies like Planet Labs, Umbra, and HawkEye 360; GPS; miniature CubeSats for education and research; and military/defense satellites.

Not visible in the next 10 days
LUCKY-7 details
Identifier
44406, 2019-038W
Orbit
Decayed
Last TLE update1 week ago
Origin
Flag of CZSkyFox Labs (CZ / CZE)
ManufacturerSkyFox Labs
MissionDecayed Commercial Technology
Bus & MotorCUBESAT 1U, Unknown motor
Mass1 kg wet, 1 kg dry
Launch date (UTC)
2019-07-05 (5 years ago)
Launch vehicle
SOYUZ-2-1B
Launch site
Vostochny Cosmodrome (VOSTO)
Object type
Payload
Rocket body
Debris
Shape & HBRBox, Unknown HBR
Radar Cross Section0.015 m², Small (<0.1 m²)

Expand to show TLE details & history

TLE from 1 week ago
0 LUCKY-7
1 44406U 19038W   24351.70569410  .16446325  26410-5  18169-3 0  9993
2 44406  97.6679   6.0836 0010327 352.1981   7.9160 16.50065787302877
Epoch: 2024-12-16T16:56Z
Definitive object data (Epoch: 2024-12-16T16:56:11.97Z)
Latitude-0.00006°
Longitude26.20896°
Altitude135.751 km
Speed7.829 km/s
True Right ascension00h 24m 20s
True Declination0° 00' 00"
Sunlit
Object was in daylight at TLE epoch
Visualization observer readout
Observer readout values are unavailable because the object's trajectory could not be propagated. This is usually caused when the trajectory data is faulty or the object's orbit has decayed.
Visualization observer readout
Observer readout values are unavailable because the object's trajectory could not be propagated. This is usually caused when the trajectory data is faulty or the object's orbit has decayed.
Orbital elements
Apogee altitude142.696 km
Perigee altitude129.242 km
Semi-major axis6,514.106 km
Eccentricity0.0010327
Inclination97.6679°
RAAN6.0836°
Arg. of periapsis352.1981°
True anomaly7.93232°
Mean anomaly7.916°
Eccentric anomaly7.92416°
Mean motion4.1282 °/min
BSTAR0.00018169
Orbital period87.21 mins
Loading maneuver chart data...

LUCKY-7 Visibility forecast

Observer location: undefined°, undefined

This satellite is decayed
Span
Click to sort rows by Start time (UTC) header in descending order
Start Az.
Max El. time (UTC)
Max El. Az.
Max El.
End time (UTC)
End Az.
|